SWA1643 TJSJ-KMCO

Flight info

Callsign SWA1643
Flight time 2h 41m
Altitude 38000
Route ACONY3 SAPPO Y280 OCTAL MUNGI1
Aircraft B737/M-SDE2E3FGHIRWXY/LB1

Departure

Time 2026-05-07 23:30
Airport Luis Munoz Marin International Airport (TJSJ)

Arrival

Time 2026-05-08 02:11
Airport Orlando International Airport (KMCO)
Time Latitude Longitude Altitude Speed Heading
2026-05-07 23:09 18.43704 -66.00177 23 ft 0 kts 180°
2026-05-07 23:21 18.43707 -66.00177 23 ft 2 kts 180°
2026-05-07 23:21 18.43722 -66.00177 23 ft 2 kts 180°
2026-05-07 23:21 18.43737 -66.00177 24 ft 2 kts 180°
2026-05-07 23:21 18.43747 -66.00177 24 ft 1 kts 180°
2026-05-07 23:22 18.43759 -66.00181 24 ft 2 kts 129°
2026-05-07 23:22 18.43763 -66.00191 24 ft 0 kts 85°
2026-05-07 23:22 18.43762 -66.00198 24 ft 1 kts 79°
2026-05-07 23:22 18.43761 -66.00200 24 ft 0 kts 80°
2026-05-07 23:24 18.43761 -66.00198 24 ft 0 kts 80°
2026-05-07 23:24 18.43768 -66.00163 24 ft 12 kts 78°
2026-05-07 23:25 18.43797 -66.00074 25 ft 12 kts 61°
2026-05-07 23:25 18.43864 -66.00061 25 ft 10 kts 336°
2026-05-07 23:25 18.43934 -66.00092 25 ft 15 kts 338°
2026-05-07 23:25 18.44052 -66.00141 25 ft 18 kts 339°
2026-05-07 23:26 18.44170 -66.00195 22 ft 18 kts 326°
2026-05-07 23:26 18.44244 -66.00286 21 ft 16 kts 252°
2026-05-07 23:26 18.44197 -66.00399 21 ft 16 kts 246°
2026-05-07 23:26 18.44150 -66.00512 20 ft 16 kts 246°
2026-05-07 23:27 18.44014 -66.00848 19 ft 28 kts 248°
2026-05-07 23:27 18.43935 -66.01042 18 ft 28 kts 245°
2026-05-07 23:27 18.43853 -66.01235 17 ft 28 kts 249°
2026-05-07 23:28 18.43791 -66.01403 17 ft 20 kts 247°
2026-05-07 23:28 18.43766 -66.01533 17 ft 17 kts 302°
2026-05-07 23:28 18.43850 -66.01550 17 ft 14 kts 65°
2026-05-07 23:28 18.43860 -66.01526 17 ft 0 kts 67°
2026-05-07 23:29 18.43877 -66.01485 17 ft 33 kts 66°
2026-05-07 23:29 18.44086 -66.00962 20 ft 118 kts 67°
2026-05-07 23:29 18.44489 -65.99976 335 ft 160 kts 68°
2026-05-07 23:30 18.44942 -65.98888 1145 ft 171 kts 67°
2026-05-07 23:30 18.45560 -65.97784 1842 ft 185 kts 48°
2026-05-07 23:30 18.46626 -65.96973 2574 ft 199 kts 28°
2026-05-07 23:30 18.48050 -65.96764 3198 ft 222 kts 351°
2026-05-07 23:31 18.49435 -65.97595 3857 ft 244 kts 317°
2026-05-07 23:31 18.50564 -65.98980 4713 ft 253 kts 310°
2026-05-07 23:31 18.51659 -66.00396 5760 ft 253 kts 312°
2026-05-07 23:31 18.52800 -66.01770 6787 ft 252 kts 314°
2026-05-07 23:32 18.53996 -66.03143 7658 ft 260 kts 314°
2026-05-07 23:32 18.55252 -66.04575 8362 ft 275 kts 314°
2026-05-07 23:32 18.56584 -66.06094 9145 ft 286 kts 314°
2026-05-07 23:32 18.57922 -66.07627 10109 ft 288 kts 314°
2026-05-07 23:33 18.59267 -66.09171 11086 ft 290 kts 314°
2026-05-07 23:33 18.60626 -66.10734 12001 ft 292 kts 314°
2026-05-07 23:33 18.61989 -66.12299 12883 ft 295 kts 314°
2026-05-07 23:33 18.63383 -66.13899 13748 ft 298 kts 314°
2026-05-07 23:34 18.64786 -66.15513 14488 ft 305 kts 314°
2026-05-07 23:34 18.66226 -66.17168 15292 ft 309 kts 314°
2026-05-07 23:34 18.67695 -66.18856 16035 ft 314 kts 314°
2026-05-07 23:34 18.69170 -66.20552 16796 ft 318 kts 314°
2026-05-07 23:35 18.70665 -66.22272 17494 ft 323 kts 315°
2026-05-07 23:35 18.72200 -66.24038 18155 ft 329 kts 315°
2026-05-07 23:35 18.73765 -66.25839 18811 ft 334 kts 315°
2026-05-07 23:35 18.75337 -66.27646 19473 ft 338 kts 315°
2026-05-07 23:36 18.76930 -66.29478 20095 ft 343 kts 316°
2026-05-07 23:36 18.78541 -66.31330 20720 ft 347 kts 316°
2026-05-07 23:36 18.80194 -66.33231 21301 ft 352 kts 316°
2026-05-07 23:36 18.81854 -66.35142 21879 ft 357 kts 316°
2026-05-07 23:37 18.83532 -66.37075 22435 ft 361 kts 316°
2026-05-07 23:37 18.85250 -66.39056 23091 ft 363 kts 316°
2026-05-07 23:37 18.86949 -66.41017 23771 ft 364 kts 316°
2026-05-07 23:37 18.88659 -66.42992 24361 ft 366 kts 316°
2026-05-07 23:38 18.90362 -66.44958 25016 ft 367 kts 316°
2026-05-07 23:38 18.92080 -66.46942 25611 ft 368 kts 316°
2026-05-07 23:38 18.93842 -66.48932 26185 ft 369 kts 319°
2026-05-07 23:38 18.95652 -66.50825 26716 ft 370 kts 320°
2026-05-07 23:39 18.97523 -66.52702 27251 ft 372 kts 321°
2026-05-07 23:39 18.99421 -66.54584 27727 ft 375 kts 321°
2026-05-07 23:39 19.01344 -66.56496 28300 ft 375 kts 321°
2026-05-07 23:39 19.03234 -66.58386 28794 ft 377 kts 321°
2026-05-07 23:40 19.05154 -66.60313 29195 ft 381 kts 321°
2026-05-07 23:40 19.07102 -66.62280 29640 ft 383 kts 321°
2026-05-07 23:40 19.08948 -66.64301 30117 ft 386 kts 317°
2026-05-07 23:40 19.10701 -66.66458 30587 ft 389 kts 315°
2026-05-07 23:41 19.12425 -66.68695 31016 ft 391 kts 315°
2026-05-07 23:41 19.14155 -66.70974 31381 ft 394 kts 315°
2026-05-07 23:41 19.15871 -66.73235 31830 ft 395 kts 316°
2026-05-07 23:41 19.17641 -66.75546 32076 ft 400 kts 316°
2026-05-07 23:42 19.19410 -66.77847 32550 ft 400 kts 316°
2026-05-07 23:42 19.21168 -66.80125 32955 ft 401 kts 317°
2026-05-07 23:42 19.22953 -66.82432 33403 ft 401 kts 317°
2026-05-07 23:42 19.24723 -66.84714 33751 ft 404 kts 317°
2026-05-07 23:43 19.26518 -66.87025 34100 ft 407 kts 317°
2026-05-07 23:43 19.28329 -66.89356 34524 ft 408 kts 317°
2026-05-07 23:43 19.30121 -66.91666 34964 ft 408 kts 317°
2026-05-07 23:43 19.31924 -66.93990 35334 ft 409 kts 317°
2026-05-07 23:44 19.33725 -66.96313 35812 ft 408 kts 317°
2026-05-07 23:44 19.35546 -66.98663 36139 ft 410 kts 317°
2026-05-07 23:44 19.37337 -67.00976 36453 ft 413 kts 317°
2026-05-07 23:44 19.39171 -67.03346 36959 ft 410 kts 317°
2026-05-07 23:45 19.40960 -67.05660 37477 ft 407 kts 317°
2026-05-07 23:45 19.42772 -67.08005 37965 ft 404 kts 317°
2026-05-07 23:45 19.46366 -67.12649 38041 ft 409 kts 317°
2026-05-07 23:46 19.50032 -67.17374 38038 ft 421 kts 317°
2026-05-07 23:46 19.53821 -67.22269 38037 ft 432 kts 316°
2026-05-07 23:47 19.57635 -67.27213 38036 ft 435 kts 316°
2026-05-07 23:47 19.61445 -67.32162 38037 ft 433 kts 316°
2026-05-07 23:48 19.65268 -67.37126 38037 ft 433 kts 316°
2026-05-07 23:48 19.69099 -67.42104 38036 ft 433 kts 316°
2026-05-07 23:49 19.72920 -67.47071 38035 ft 435 kts 316°
2026-05-07 23:49 19.76721 -67.52023 38034 ft 433 kts 316°
2026-05-07 23:50 19.80538 -67.56993 38036 ft 436 kts 316°
2026-05-07 23:50 19.84376 -67.61990 38036 ft 437 kts 316°
2026-05-07 23:51 19.88227 -67.67011 38034 ft 435 kts 315°
2026-05-07 23:51 19.92070 -67.72033 38034 ft 436 kts 315°
2026-05-07 23:52 19.95942 -67.77089 38034 ft 440 kts 315°
2026-05-07 23:52 19.99769 -67.82100 38036 ft 435 kts 315°
2026-05-07 23:53 20.03588 -67.87098 38034 ft 436 kts 315°
2026-05-07 23:53 20.07446 -67.92152 38033 ft 437 kts 314°
2026-05-07 23:54 20.11293 -67.97192 38031 ft 438 kts 314°
2026-05-07 23:54 20.15112 -68.02206 38032 ft 437 kts 314°
2026-05-07 23:55 20.18961 -68.07260 38031 ft 438 kts 314°
2026-05-07 23:55 20.22790 -68.12296 38029 ft 436 kts 314°
2026-05-07 23:56 20.26585 -68.17290 38030 ft 436 kts 314°
2026-05-07 23:56 20.30395 -68.22306 38030 ft 436 kts 314°
2026-05-07 23:57 20.34210 -68.27333 38030 ft 435 kts 314°
2026-05-07 23:57 20.38001 -68.32335 38032 ft 436 kts 314°
2026-05-07 23:58 20.41825 -68.37382 38035 ft 435 kts 314°
2026-05-07 23:58 20.45485 -68.42532 38045 ft 439 kts 309°
2026-05-07 23:59 20.48762 -68.48053 38047 ft 440 kts 306°
2026-05-07 23:59 20.51939 -68.53630 38051 ft 439 kts 306°
2026-05-08 00:00 20.55139 -68.59190 38046 ft 439 kts 307°
2026-05-08 00:00 20.58377 -68.64753 38047 ft 439 kts 306°
2026-05-08 00:01 20.61623 -68.70297 38048 ft 441 kts 306°
2026-05-08 00:01 20.64873 -68.75848 38048 ft 439 kts 306°
2026-05-08 00:02 20.68125 -68.81406 38048 ft 438 kts 307°
2026-05-08 00:02 20.71354 -68.86929 38049 ft 439 kts 306°
2026-05-08 00:03 20.74609 -68.92493 38048 ft 440 kts 306°
2026-05-08 00:03 20.77858 -68.98055 38049 ft 439 kts 306°
2026-05-08 00:04 20.81082 -69.03582 38050 ft 438 kts 306°
2026-05-08 00:04 20.84309 -69.09119 38048 ft 440 kts 306°
2026-05-08 00:05 20.87561 -69.14706 38049 ft 436 kts 306°
2026-05-08 00:05 20.90761 -69.20207 38049 ft 439 kts 306°
2026-05-08 00:06 20.93989 -69.25761 38050 ft 437 kts 306°
2026-05-08 00:06 20.97206 -69.31303 38050 ft 437 kts 306°
2026-05-08 00:07 21.00406 -69.36823 38046 ft 436 kts 306°
2026-05-08 00:07 21.03629 -69.42388 38033 ft 437 kts 306°
2026-05-08 00:08 21.06835 -69.47926 38031 ft 437 kts 306°
2026-05-08 00:08 21.09986 -69.53378 38031 ft 436 kts 306°
2026-05-08 00:09 21.13196 -69.58939 38032 ft 435 kts 306°
2026-05-08 00:09 21.16371 -69.64442 38034 ft 436 kts 306°
2026-05-08 00:10 21.19583 -69.70019 38035 ft 435 kts 306°
2026-05-08 00:10 21.22761 -69.75534 38033 ft 437 kts 306°
2026-05-08 00:11 21.25968 -69.81109 38036 ft 434 kts 306°
2026-05-08 00:11 21.29140 -69.86629 38034 ft 435 kts 306°
2026-05-08 00:12 21.32300 -69.92136 38038 ft 436 kts 306°
2026-05-08 00:12 21.35473 -69.97667 38039 ft 435 kts 306°
2026-05-08 00:13 21.38645 -70.03202 38038 ft 434 kts 306°
2026-05-08 00:13 21.41790 -70.08697 38036 ft 434 kts 306°
2026-05-08 00:14 21.44938 -70.14202 38038 ft 433 kts 306°
2026-05-08 00:14 21.48118 -70.19769 38036 ft 435 kts 306°
2026-05-08 00:15 21.51260 -70.25275 38036 ft 436 kts 306°
2026-05-08 00:15 21.54440 -70.30857 38035 ft 435 kts 306°
2026-05-08 00:16 21.57589 -70.36391 38038 ft 435 kts 306°
2026-05-08 00:16 21.60753 -70.41953 38033 ft 435 kts 306°
2026-05-08 00:17 21.63906 -70.47498 38037 ft 435 kts 306°
2026-05-08 00:17 21.67064 -70.53061 38035 ft 434 kts 306°
2026-05-08 00:18 21.70206 -70.58604 38036 ft 436 kts 306°
2026-05-08 00:18 21.73385 -70.64214 38042 ft 436 kts 306°
2026-05-08 00:19 21.76516 -70.69746 38042 ft 436 kts 306°
2026-05-08 00:19 21.79677 -70.75338 38044 ft 435 kts 306°
2026-05-08 00:20 21.82840 -70.80937 38045 ft 436 kts 306°
2026-05-08 00:20 21.85987 -70.86521 38048 ft 434 kts 306°
2026-05-08 00:21 21.89118 -70.92072 38045 ft 434 kts 306°
2026-05-08 00:21 21.92259 -70.97651 38048 ft 435 kts 306°
2026-05-08 00:22 21.95384 -71.03207 38047 ft 436 kts 306°
2026-05-08 00:22 21.98534 -71.08812 38048 ft 437 kts 306°
2026-05-08 00:23 22.01679 -71.14418 38045 ft 436 kts 306°
2026-05-08 00:23 22.04822 -71.20023 38047 ft 437 kts 306°
2026-05-08 00:24 22.07950 -71.25609 38047 ft 436 kts 305°
2026-05-08 00:24 22.11104 -71.31243 38045 ft 437 kts 305°
2026-05-08 00:25 22.14242 -71.36857 38043 ft 436 kts 305°
2026-05-08 00:25 22.17384 -71.42488 38046 ft 436 kts 305°
2026-05-08 00:26 22.20519 -71.48109 38042 ft 438 kts 305°
2026-05-08 00:26 22.23648 -71.53723 38043 ft 437 kts 305°
2026-05-08 00:27 22.26802 -71.59389 38038 ft 439 kts 305°
2026-05-08 00:27 22.29932 -71.65022 38038 ft 438 kts 304°
2026-05-08 00:28 22.33073 -71.70676 38038 ft 439 kts 304°
2026-05-08 00:28 22.36209 -71.76331 38039 ft 439 kts 304°
2026-05-08 00:29 22.39335 -71.81969 38041 ft 438 kts 304°
2026-05-08 00:29 22.42461 -71.87614 38037 ft 438 kts 304°
2026-05-08 00:30 22.45578 -71.93251 38040 ft 439 kts 304°
2026-05-08 00:30 22.48696 -71.98895 38038 ft 440 kts 304°
2026-05-08 00:31 22.51832 -72.04579 38038 ft 440 kts 304°
2026-05-08 00:31 22.54953 -72.10242 38039 ft 440 kts 304°
2026-05-08 00:32 22.58110 -72.15975 38041 ft 440 kts 304°
2026-05-08 00:32 22.61245 -72.21678 38041 ft 439 kts 304°
2026-05-08 00:33 22.64373 -72.27372 38042 ft 440 kts 304°
2026-05-08 00:33 22.67489 -72.33048 38041 ft 441 kts 304°
2026-05-08 00:34 22.70637 -72.38792 38043 ft 441 kts 304°
2026-05-08 00:34 22.73762 -72.44497 38046 ft 441 kts 304°
2026-05-08 00:35 22.76893 -72.50221 38046 ft 442 kts 304°
2026-05-08 00:35 22.80024 -72.55954 38048 ft 441 kts 304°
2026-05-08 00:36 22.83144 -72.61670 38047 ft 441 kts 303°
2026-05-08 00:36 22.86296 -72.67452 38048 ft 441 kts 303°
2026-05-08 00:37 22.89401 -72.73155 38048 ft 441 kts 303°
2026-05-08 00:38 22.94111 -72.81815 38049 ft 442 kts 303°
2026-05-08 00:38 22.97235 -72.87566 38048 ft 443 kts 303°
2026-05-08 00:39 23.00359 -72.93327 38049 ft 444 kts 303°
2026-05-08 00:39 23.03492 -72.99110 38049 ft 444 kts 303°
2026-05-08 00:40 23.06603 -73.04862 38048 ft 443 kts 303°
2026-05-08 00:40 23.09733 -73.10657 38047 ft 442 kts 303°
2026-05-08 00:41 23.12841 -73.16415 38049 ft 442 kts 303°
2026-05-08 00:41 23.15931 -73.22147 38049 ft 442 kts 303°
2026-05-08 00:42 23.19046 -73.27931 38047 ft 441 kts 303°
2026-05-08 00:42 23.22138 -73.33677 38048 ft 442 kts 303°
2026-05-08 00:43 23.25241 -73.39450 38048 ft 441 kts 303°
2026-05-08 00:43 23.28348 -73.45239 38047 ft 442 kts 303°
2026-05-08 00:44 23.31442 -73.51010 38049 ft 442 kts 303°
2026-05-08 00:44 23.34531 -73.56778 38048 ft 441 kts 303°
2026-05-08 00:45 23.37624 -73.62561 38048 ft 440 kts 303°
2026-05-08 00:45 23.40709 -73.68335 38050 ft 441 kts 302°
2026-05-08 00:46 23.43781 -73.74092 38048 ft 440 kts 302°
2026-05-08 00:46 23.46854 -73.79858 38046 ft 440 kts 302°
2026-05-08 00:47 23.49932 -73.85638 38050 ft 440 kts 302°
2026-05-08 00:47 23.52992 -73.91393 38047 ft 440 kts 302°
2026-05-08 00:48 23.56078 -73.97202 38047 ft 440 kts 302°
2026-05-08 00:48 23.59147 -74.02986 38048 ft 440 kts 302°
2026-05-08 00:49 23.62211 -74.08768 38049 ft 439 kts 302°
2026-05-08 00:49 23.65257 -74.14526 38050 ft 439 kts 302°
2026-05-08 00:50 23.68316 -74.20315 38051 ft 438 kts 302°
2026-05-08 00:50 23.71361 -74.26080 38050 ft 439 kts 302°
2026-05-08 00:51 23.74425 -74.31889 38051 ft 439 kts 302°
2026-05-08 00:51 23.77472 -74.37675 38050 ft 439 kts 302°
2026-05-08 00:52 23.80524 -74.43477 38050 ft 438 kts 302°
2026-05-08 00:52 23.83565 -74.49264 38048 ft 438 kts 302°
2026-05-08 00:53 23.86593 -74.55033 38052 ft 438 kts 302°
2026-05-08 00:53 23.89630 -74.60827 38051 ft 439 kts 302°
2026-05-08 00:54 23.92643 -74.66581 38052 ft 438 kts 301°
2026-05-08 00:54 23.95675 -74.72377 38050 ft 438 kts 301°
2026-05-08 00:55 23.98691 -74.78149 38052 ft 438 kts 301°
2026-05-08 00:55 24.01725 -74.83964 38051 ft 438 kts 301°
2026-05-08 00:56 24.04750 -74.89768 38050 ft 437 kts 301°
2026-05-08 00:56 24.07764 -74.95558 38051 ft 437 kts 301°
2026-05-08 00:57 24.10759 -75.01319 38050 ft 437 kts 301°
2026-05-08 00:57 24.13786 -75.07148 38049 ft 437 kts 301°
2026-05-08 00:58 24.16788 -75.12937 38049 ft 437 kts 301°
2026-05-08 00:58 24.19770 -75.18694 38050 ft 438 kts 301°
2026-05-08 00:59 24.22794 -75.24536 38050 ft 437 kts 301°
2026-05-08 00:59 24.25786 -75.30328 38050 ft 437 kts 301°
2026-05-08 01:00 24.28788 -75.36143 38049 ft 437 kts 301°
2026-05-08 01:00 24.31776 -75.41939 38049 ft 437 kts 301°
2026-05-08 01:01 24.34771 -75.47753 38049 ft 436 kts 301°
2026-05-08 01:01 24.37757 -75.53560 38050 ft 437 kts 300°
2026-05-08 01:02 24.40725 -75.59338 38051 ft 436 kts 301°
2026-05-08 01:02 24.43718 -75.65170 38049 ft 437 kts 300°
2026-05-08 01:03 24.46694 -75.70978 38050 ft 437 kts 300°
2026-05-08 01:03 24.49693 -75.76837 38047 ft 437 kts 300°
2026-05-08 01:04 24.52678 -75.82676 38260 ft 440 kts 300°
2026-05-08 01:04 24.54171 -75.85598 38806 ft 437 kts 300°
2026-05-08 01:04 24.55636 -75.88469 39301 ft 435 kts 300°
2026-05-08 01:04 24.57116 -75.91371 39806 ft 433 kts 300°
2026-05-08 01:05 24.58598 -75.94279 40054 ft 434 kts 300°
2026-05-08 01:05 24.61558 -76.00089 40048 ft 431 kts 300°
2026-05-08 01:06 24.64473 -76.05821 40050 ft 431 kts 300°
2026-05-08 01:06 24.67417 -76.11615 40052 ft 431 kts 300°
2026-05-08 01:07 24.70338 -76.17369 40052 ft 435 kts 300°
2026-05-08 01:07 24.73311 -76.23232 40051 ft 438 kts 300°
2026-05-08 01:08 24.76263 -76.29065 40047 ft 437 kts 300°
2026-05-08 01:08 24.79215 -76.34903 40046 ft 436 kts 300°
2026-05-08 01:09 24.82156 -76.40728 40047 ft 436 kts 300°
2026-05-08 01:09 24.85108 -76.46581 40048 ft 436 kts 300°
2026-05-08 01:10 24.88060 -76.52440 40046 ft 437 kts 300°
2026-05-08 01:10 24.91015 -76.58314 40046 ft 436 kts 300°
2026-05-08 01:11 24.93966 -76.64187 40045 ft 436 kts 300°
2026-05-08 01:11 24.96875 -76.69984 40048 ft 435 kts 299°
2026-05-08 01:12 24.99798 -76.75817 40049 ft 435 kts 299°
2026-05-08 01:12 25.02731 -76.81675 40049 ft 435 kts 299°
2026-05-08 01:13 25.05652 -76.87516 40049 ft 435 kts 299°
2026-05-08 01:13 25.08578 -76.93375 40049 ft 436 kts 299°
2026-05-08 01:14 25.11496 -76.99228 40049 ft 436 kts 299°
2026-05-08 01:14 25.14415 -77.05088 40050 ft 436 kts 299°
2026-05-08 01:15 25.17333 -77.10954 40043 ft 435 kts 299°
2026-05-08 01:15 25.20254 -77.16833 40034 ft 435 kts 299°
2026-05-08 01:16 25.23168 -77.22708 40030 ft 435 kts 299°
2026-05-08 01:16 25.26066 -77.28558 40034 ft 435 kts 299°
2026-05-08 01:17 25.28942 -77.34447 40029 ft 435 kts 297°
2026-05-08 01:17 25.31278 -77.40590 40033 ft 436 kts 291°
2026-05-08 01:18 25.33302 -77.46936 40034 ft 436 kts 290°
2026-05-08 01:18 25.35268 -77.53228 40028 ft 435 kts 290°
2026-05-08 01:19 25.37280 -77.59576 40030 ft 435 kts 290°
2026-05-08 01:19 25.39300 -77.65872 40029 ft 435 kts 290°
2026-05-08 01:20 25.41334 -77.72179 40027 ft 435 kts 290°
2026-05-08 01:20 25.43359 -77.78503 40029 ft 435 kts 289°
2026-05-08 01:21 25.45067 -77.84877 40028 ft 436 kts 286°
2026-05-08 01:21 25.46630 -77.91398 40028 ft 435 kts 285°
2026-05-08 01:22 25.48185 -77.97859 40027 ft 435 kts 286°
2026-05-08 01:22 25.49771 -78.04333 40033 ft 434 kts 286°
2026-05-08 01:23 25.51360 -78.10752 40027 ft 435 kts 286°
2026-05-08 01:23 25.52962 -78.17202 40030 ft 436 kts 286°
2026-05-08 01:24 25.54561 -78.23647 40027 ft 435 kts 286°
2026-05-08 01:24 25.56159 -78.30096 40026 ft 435 kts 286°
2026-05-08 01:25 25.57759 -78.36563 40026 ft 435 kts 286°
2026-05-08 01:25 25.59356 -78.43034 40028 ft 435 kts 286°
2026-05-08 01:26 25.60944 -78.49480 40026 ft 434 kts 286°
2026-05-08 01:26 25.62538 -78.55965 40027 ft 435 kts 286°
2026-05-08 01:27 25.64125 -78.62434 40027 ft 435 kts 286°
2026-05-08 01:27 25.65706 -78.68893 40030 ft 435 kts 286°
2026-05-08 01:28 25.67284 -78.75353 40027 ft 435 kts 285°
2026-05-08 01:28 25.68862 -78.81827 40028 ft 435 kts 285°
2026-05-08 01:29 25.70445 -78.88332 40027 ft 435 kts 285°
2026-05-08 01:29 25.72020 -78.94823 40030 ft 435 kts 285°
2026-05-08 01:30 25.73591 -79.01307 40029 ft 435 kts 285°
2026-05-08 01:30 25.75153 -79.07770 40029 ft 435 kts 285°
2026-05-08 01:31 25.76721 -79.14268 40029 ft 436 kts 285°
2026-05-08 01:31 25.78282 -79.20753 40029 ft 435 kts 285°
2026-05-08 01:32 25.79849 -79.27277 40029 ft 435 kts 285°
2026-05-08 01:32 25.81404 -79.33762 40029 ft 435 kts 285°
2026-05-08 01:33 25.82946 -79.40207 40029 ft 435 kts 285°
2026-05-08 01:33 25.84502 -79.46726 40029 ft 436 kts 285°
2026-05-08 01:34 25.86050 -79.53224 40029 ft 435 kts 285°
2026-05-08 01:34 25.87603 -79.59757 40028 ft 435 kts 285°
2026-05-08 01:35 25.89140 -79.66241 40029 ft 436 kts 285°
2026-05-08 01:35 25.90671 -79.72707 39418 ft 442 kts 285°
2026-05-08 01:35 25.91484 -79.75987 38229 ft 446 kts 287°
2026-05-08 01:36 25.92460 -79.79225 37677 ft 439 kts 291°
2026-05-08 01:36 25.93702 -79.82269 37373 ft 428 kts 297°
2026-05-08 01:36 25.95157 -79.85152 37127 ft 417 kts 300°
2026-05-08 01:36 25.96658 -79.87845 36710 ft 411 kts 301°
2026-05-08 01:37 25.98205 -79.90517 35981 ft 411 kts 302°
2026-05-08 01:37 25.99771 -79.93204 35175 ft 412 kts 302°
2026-05-08 01:37 26.01316 -79.95869 34321 ft 414 kts 301°
2026-05-08 01:37 26.02864 -79.98560 33448 ft 416 kts 301°
2026-05-08 01:38 26.04408 -80.01269 32602 ft 417 kts 301°
2026-05-08 01:38 26.05964 -80.04018 31741 ft 420 kts 301°
2026-05-08 01:38 26.07526 -80.06792 30869 ft 422 kts 301°
2026-05-08 01:38 26.09075 -80.09553 29969 ft 424 kts 301°
2026-05-08 01:39 26.10615 -80.12307 29038 ft 427 kts 301°
2026-05-08 01:39 26.12190 -80.15126 28065 ft 430 kts 301°
2026-05-08 01:39 26.13867 -80.17889 27107 ft 432 kts 306°
2026-05-08 01:39 26.15846 -80.20400 26141 ft 436 kts 314°
2026-05-08 01:40 26.18202 -80.22534 25075 ft 442 kts 323°
2026-05-08 01:40 26.20862 -80.24217 24414 ft 437 kts 331°
2026-05-08 01:40 26.23645 -80.25618 23709 ft 433 kts 334°
2026-05-08 01:40 26.26419 -80.26890 22993 ft 428 kts 335°
2026-05-08 01:41 26.29186 -80.28144 22293 ft 423 kts 335°
2026-05-08 01:41 26.31896 -80.29398 21553 ft 420 kts 334°
2026-05-08 01:41 26.34549 -80.30661 20897 ft 415 kts 334°
2026-05-08 01:41 26.37204 -80.31961 20154 ft 411 kts 333°
2026-05-08 01:42 26.39841 -80.33281 19446 ft 407 kts 333°
2026-05-08 01:42 26.42384 -80.34575 18748 ft 404 kts 333°
2026-05-08 01:42 26.44941 -80.35889 18075 ft 400 kts 333°
2026-05-08 01:42 26.47459 -80.37193 17364 ft 397 kts 333°
2026-05-08 01:43 26.49912 -80.38469 17255 ft 371 kts 333°
2026-05-08 01:43 26.52190 -80.39654 17401 ft 338 kts 333°
2026-05-08 01:43 26.54236 -80.40721 17422 ft 314 kts 333°
2026-05-08 01:43 26.56188 -80.41747 17426 ft 305 kts 332°
2026-05-08 01:44 26.58109 -80.42761 17426 ft 307 kts 332°
2026-05-08 01:44 26.60070 -80.43796 17427 ft 307 kts 332°
2026-05-08 01:44 26.62016 -80.44817 17426 ft 307 kts 333°
2026-05-08 01:44 26.64000 -80.45752 17425 ft 308 kts 336°
2026-05-08 01:45 26.66041 -80.46590 17429 ft 308 kts 338°
2026-05-08 01:45 26.68083 -80.47393 17430 ft 310 kts 338°
2026-05-08 01:45 26.70143 -80.48210 17427 ft 308 kts 337°
2026-05-08 01:45 26.72161 -80.49026 17428 ft 308 kts 337°
2026-05-08 01:46 26.74204 -80.49863 17428 ft 308 kts 337°
2026-05-08 01:46 26.76240 -80.50704 17427 ft 308 kts 337°
2026-05-08 01:46 26.78270 -80.51544 17428 ft 308 kts 337°
2026-05-08 01:46 26.80291 -80.52381 17428 ft 309 kts 336°
2026-05-08 01:47 26.82337 -80.53228 17428 ft 309 kts 336°
2026-05-08 01:47 26.84368 -80.54069 17429 ft 309 kts 336°
2026-05-08 01:47 26.86409 -80.54915 17428 ft 310 kts 336°
2026-05-08 01:48 26.90488 -80.56606 17436 ft 312 kts 336°
2026-05-08 01:48 26.92548 -80.57459 17428 ft 310 kts 336°
2026-05-08 01:48 26.94560 -80.58293 17428 ft 310 kts 336°
2026-05-08 01:48 26.96615 -80.59146 17427 ft 310 kts 336°
2026-05-08 01:49 26.98644 -80.59988 17427 ft 309 kts 336°
2026-05-08 01:49 27.00688 -80.60837 17427 ft 309 kts 336°
2026-05-08 01:49 27.02706 -80.61674 17429 ft 308 kts 336°
2026-05-08 01:49 27.04732 -80.62517 17426 ft 307 kts 336°
2026-05-08 01:50 27.06758 -80.63360 17426 ft 310 kts 336°
2026-05-08 01:50 27.08820 -80.64218 17426 ft 310 kts 336°
2026-05-08 01:50 27.10853 -80.65065 17428 ft 311 kts 336°
2026-05-08 01:50 27.12889 -80.65914 17426 ft 310 kts 335°
2026-05-08 01:51 27.14889 -80.66752 17424 ft 310 kts 335°
2026-05-08 01:51 27.16958 -80.67620 17423 ft 311 kts 335°
2026-05-08 01:51 27.19005 -80.68479 17422 ft 309 kts 335°
2026-05-08 01:51 27.21020 -80.69324 17422 ft 309 kts 335°
2026-05-08 01:52 27.23041 -80.70172 17421 ft 309 kts 335°
2026-05-08 01:52 27.25098 -80.71036 17421 ft 309 kts 335°
2026-05-08 01:52 27.27124 -80.71887 17417 ft 308 kts 335°
2026-05-08 01:52 27.29141 -80.72733 17418 ft 309 kts 335°
2026-05-08 01:53 27.31179 -80.73590 17421 ft 308 kts 335°
2026-05-08 01:53 27.33198 -80.74438 17424 ft 309 kts 335°
2026-05-08 01:53 27.35244 -80.75298 17416 ft 309 kts 335°
2026-05-08 01:53 27.37263 -80.76148 17424 ft 308 kts 335°
2026-05-08 01:54 27.39295 -80.77016 17424 ft 308 kts 335°
2026-05-08 01:54 27.41327 -80.77896 17419 ft 309 kts 335°
2026-05-08 01:54 27.43329 -80.78767 17421 ft 309 kts 335°
2026-05-08 01:54 27.45364 -80.79652 17420 ft 308 kts 334°
2026-05-08 01:55 27.47357 -80.80517 17417 ft 308 kts 335°
2026-05-08 01:55 27.49417 -80.81409 17418 ft 309 kts 335°
2026-05-08 01:55 27.51406 -80.82272 17418 ft 307 kts 335°
2026-05-08 01:55 27.53418 -80.83143 17420 ft 307 kts 334°
2026-05-08 01:56 27.55437 -80.84019 17409 ft 307 kts 334°
2026-05-08 01:56 27.57434 -80.84917 17216 ft 309 kts 333°
2026-05-08 01:56 27.59366 -80.85894 16981 ft 304 kts 330°
2026-05-08 01:56 27.61295 -80.86930 16741 ft 303 kts 330°
2026-05-08 01:57 27.63185 -80.87952 16506 ft 304 kts 330°
2026-05-08 01:57 27.65105 -80.88978 16239 ft 300 kts 331°
2026-05-08 01:57 27.66972 -80.89963 15875 ft 298 kts 331°
2026-05-08 01:57 27.68858 -80.90951 15488 ft 296 kts 331°
2026-05-08 01:58 27.70719 -80.91927 15105 ft 294 kts 331°
2026-05-08 01:58 27.72557 -80.92889 14729 ft 293 kts 331°
2026-05-08 01:58 27.74416 -80.93864 14348 ft 295 kts 331°
2026-05-08 01:58 27.76303 -80.94856 13963 ft 299 kts 331°
2026-05-08 01:59 27.78176 -80.95840 13570 ft 297 kts 331°
2026-05-08 01:59 27.80067 -80.96832 13182 ft 295 kts 331°
2026-05-08 01:59 27.81924 -80.97807 12797 ft 293 kts 331°
2026-05-08 01:59 27.83796 -80.98791 12413 ft 291 kts 331°
2026-05-08 02:00 27.85626 -80.99753 12035 ft 289 kts 332°
2026-05-08 02:00 27.87454 -81.00714 11661 ft 287 kts 332°
2026-05-08 02:00 27.89251 -81.01660 11291 ft 285 kts 332°
2026-05-08 02:00 27.91047 -81.02605 10923 ft 283 kts 332°
2026-05-08 02:01 27.92828 -81.03545 10556 ft 281 kts 332°
2026-05-08 02:01 27.94595 -81.04422 10189 ft 280 kts 335°
2026-05-08 02:01 27.96431 -81.05208 9888 ft 275 kts 338°
2026-05-08 02:01 27.98197 -81.05922 9600 ft 271 kts 338°
2026-05-08 02:02 27.99973 -81.06647 9249 ft 269 kts 337°
2026-05-08 02:02 28.01733 -81.07380 8907 ft 267 kts 337°
2026-05-08 02:02 28.03471 -81.08114 8570 ft 265 kts 337°
2026-05-08 02:02 28.05198 -81.08845 8235 ft 264 kts 338°
2026-05-08 02:03 28.06893 -81.09608 7900 ft 262 kts 333°
2026-05-08 02:03 28.08420 -81.10780 7564 ft 266 kts 312°
2026-05-08 02:03 28.09422 -81.12529 7237 ft 264 kts 296°
2026-05-08 02:03 28.10196 -81.14414 6903 ft 262 kts 294°
2026-05-08 02:04 28.10956 -81.16281 6564 ft 260 kts 295°
2026-05-08 02:04 28.11744 -81.18125 6239 ft 258 kts 296°
2026-05-08 02:04 28.12545 -81.19936 5911 ft 257 kts 296°
2026-05-08 02:04 28.13353 -81.21741 5563 ft 255 kts 296°
2026-05-08 02:05 28.14153 -81.23525 5258 ft 251 kts 296°
2026-05-08 02:05 28.14926 -81.25253 5126 ft 245 kts 297°
2026-05-08 02:05 28.15840 -81.26878 5052 ft 242 kts 311°
2026-05-08 02:05 28.17213 -81.27918 4918 ft 238 kts 342°
2026-05-08 02:06 28.18869 -81.28120 4530 ft 243 kts 359°
2026-05-08 02:06 28.20554 -81.28074 4218 ft 237 kts 360°
2026-05-08 02:06 28.22170 -81.28038 3902 ft 228 kts 359°
2026-05-08 02:06 28.23751 -81.28037 3543 ft 221 kts 358°
2026-05-08 02:07 28.25259 -81.28056 3247 ft 213 kts 357°
2026-05-08 02:07 28.26729 -81.28075 2964 ft 205 kts 357°
2026-05-08 02:07 28.28130 -81.28088 2696 ft 198 kts 356°
2026-05-08 02:07 28.29504 -81.28102 2435 ft 192 kts 356°
2026-05-08 02:08 28.30806 -81.28116 2188 ft 186 kts 356°
2026-05-08 02:08 28.32055 -81.28127 1947 ft 170 kts 355°
2026-05-08 02:08 28.33186 -81.28136 1745 ft 156 kts 354°
2026-05-08 02:08 28.34240 -81.28148 1536 ft 146 kts 354°
2026-05-08 02:09 28.35226 -81.28158 1348 ft 135 kts 354°
2026-05-08 02:09 28.36143 -81.28170 1183 ft 130 kts 354°
2026-05-08 02:09 28.37045 -81.28181 1022 ft 130 kts 354°
2026-05-08 02:09 28.37956 -81.28191 855 ft 130 kts 355°
2026-05-08 02:10 28.38859 -81.28200 689 ft 130 kts 355°
2026-05-08 02:10 28.39771 -81.28212 520 ft 130 kts 355°
2026-05-08 02:10 28.40678 -81.28222 354 ft 131 kts 356°
2026-05-08 02:10 28.41596 -81.28228 190 ft 131 kts 356°
2026-05-08 02:11 28.42502 -81.28243 87 ft 120 kts 356°
2026-05-08 02:11 28.43127 -81.28243 87 ft 59 kts 360°
2026-05-08 02:11 28.43429 -81.28254 87 ft 32 kts 345°
2026-05-08 02:11 28.43593 -81.28369 87 ft 26 kts 344°
2026-05-08 02:12 28.43772 -81.28377 87 ft 25 kts 359°
2026-05-08 02:12 28.43875 -81.28471 87 ft 21 kts 270°
2026-05-08 02:12 28.43874 -81.28636 87 ft 20 kts 270°
2026-05-08 02:12 28.43873 -81.28794 87 ft 19 kts 270°
2026-05-08 02:13 28.43871 -81.28944 87 ft 18 kts 269°
2026-05-08 02:13 28.43870 -81.29086 87 ft 17 kts 270°
2026-05-08 02:13 28.43867 -81.29221 87 ft 16 kts 251°
2026-05-08 02:13 28.43772 -81.29265 88 ft 15 kts 178°
2026-05-08 02:14 28.43666 -81.29262 88 ft 14 kts 179°
2026-05-08 02:14 28.43569 -81.29277 90 ft 13 kts 222°
2026-05-08 02:14 28.43552 -81.29376 90 ft 13 kts 270°
2026-05-08 02:14 28.43552 -81.29501 90 ft 16 kts 270°
2026-05-08 02:15 28.43552 -81.29631 90 ft 16 kts 269°
2026-05-08 02:15 28.43549 -81.29757 90 ft 15 kts 269°
2026-05-08 02:15 28.43556 -81.29878 90 ft 13 kts 319°
2026-05-08 02:15 28.43653 -81.29891 90 ft 15 kts 358°
2026-05-08 02:16 28.43759 -81.29914 90 ft 15 kts 332°
2026-05-08 02:16 28.43821 -81.30009 90 ft 15 kts 285°
2026-05-08 02:16 28.43816 -81.30124 90 ft 14 kts 236°
2026-05-08 02:16 28.43749 -81.30209 90 ft 14 kts 206°
2026-05-08 02:17 28.43653 -81.30208 90 ft 12 kts 160°
2026-05-08 02:17 28.43616 -81.30192 89 ft 0 kts 159°
2026-05-08 02:17 28.43612 -81.30190 89 ft 0 kts 159°